N585RS KMEM-KLIT

Flight info

Callsign N585RS
Flight time 0h 56m
Altitude 8000
Route KENLY
Aircraft BE58/L-SDFGRY/C

Departure

Time 2026-05-05 23:16
Airport Memphis International Airport (KMEM)

Arrival

Time 2026-05-06 00:12
Airport Bill & Hillary Clinton National Airport/Adams Field (KLIT)
Time Latitude Longitude Altitude Speed Heading
2026-05-05 22:58 35.05434 -89.98254 323 ft 0 kts 271°
2026-05-05 23:08 35.05434 -89.98255 325 ft 0 kts 271°
2026-05-05 23:09 35.05454 -89.98280 323 ft 11 kts 316°
2026-05-05 23:09 35.05528 -89.98362 325 ft 15 kts 327°
2026-05-05 23:09 35.05570 -89.98448 325 ft 15 kts 273°
2026-05-05 23:10 35.05517 -89.98509 325 ft 15 kts 179°
2026-05-05 23:10 35.05398 -89.98510 325 ft 19 kts 181°
2026-05-05 23:10 35.05281 -89.98511 325 ft 17 kts 180°
2026-05-05 23:10 35.05141 -89.98515 325 ft 23 kts 189°
2026-05-05 23:11 35.05004 -89.98583 325 ft 20 kts 206°
2026-05-05 23:11 35.04947 -89.98629 326 ft 4 kts 248°
2026-05-05 23:11 35.04944 -89.98632 326 ft 0 kts 198°
2026-05-05 23:14 35.04937 -89.98637 325 ft 0 kts 229°
2026-05-05 23:15 35.04934 -89.98650 327 ft 7 kts 267°
2026-05-05 23:15 35.04901 -89.98744 325 ft 21 kts 188°
2026-05-05 23:15 35.04471 -89.98733 349 ft 99 kts 180°
2026-05-05 23:15 35.03688 -89.98723 619 ft 120 kts 185°
2026-05-05 23:16 35.02833 -89.98822 1021 ft 125 kts 187°
2026-05-05 23:16 35.02020 -89.99040 1519 ft 115 kts 211°
2026-05-05 23:16 35.01374 -89.99670 1802 ft 125 kts 216°
2026-05-05 23:16 35.00704 -90.00403 2092 ft 133 kts 218°
2026-05-05 23:17 34.99999 -90.01115 2533 ft 129 kts 218°
2026-05-05 23:17 34.99517 -90.01980 2982 ft 131 kts 256°
2026-05-05 23:17 34.99557 -90.03085 3409 ft 129 kts 265°
2026-05-05 23:17 34.99661 -90.04159 3839 ft 129 kts 274°
2026-05-05 23:18 35.00317 -90.04983 4281 ft 154 kts 328°
2026-05-05 23:18 35.01431 -90.04899 4725 ft 173 kts 17°
2026-05-05 23:18 35.02295 -90.03885 5178 ft 175 kts 65°
2026-05-05 23:18 35.02691 -90.02502 5631 ft 173 kts 60°
2026-05-05 23:19 35.03543 -90.01586 6086 ft 158 kts 10°
2026-05-05 23:19 35.04503 -90.01632 6504 ft 124 kts 314°
2026-05-05 23:19 35.04797 -90.02350 6909 ft 88 kts 248°
2026-05-05 23:19 35.04377 -90.02871 7270 ft 86 kts 230°
2026-05-05 23:20 35.03973 -90.03383 7608 ft 82 kts 235°
2026-05-05 23:20 35.03616 -90.03954 7816 ft 89 kts 240°
2026-05-05 23:20 35.03280 -90.04648 7911 ft 101 kts 248°
2026-05-05 23:20 35.03155 -90.05533 7957 ft 113 kts 263°
2026-05-05 23:21 35.03193 -90.06534 7975 ft 123 kts 271°
2026-05-05 23:21 35.03355 -90.07595 7977 ft 131 kts 276°
2026-05-05 23:21 35.03586 -90.08685 7978 ft 135 kts 278°
2026-05-05 23:21 35.03845 -90.09800 7980 ft 137 kts 278°
2026-05-05 23:22 35.04110 -90.10928 7983 ft 139 kts 278°
2026-05-05 23:22 35.04356 -90.12074 7986 ft 140 kts 277°
2026-05-05 23:22 35.04580 -90.13234 7984 ft 141 kts 276°
2026-05-05 23:22 35.04797 -90.14398 7980 ft 141 kts 276°
2026-05-05 23:23 35.05021 -90.15561 7979 ft 141 kts 277°
2026-05-05 23:23 35.05260 -90.16723 7980 ft 141 kts 277°
2026-05-05 23:23 35.05506 -90.17878 7982 ft 141 kts 277°
2026-05-05 23:23 35.05752 -90.19034 7981 ft 140 kts 277°
2026-05-05 23:24 35.05989 -90.20189 7981 ft 140 kts 277°
2026-05-05 23:24 35.06220 -90.21344 7982 ft 140 kts 277°
2026-05-05 23:24 35.06449 -90.22500 7983 ft 140 kts 277°
2026-05-05 23:24 35.06678 -90.23657 7984 ft 140 kts 277°
2026-05-05 23:25 35.06907 -90.24815 7984 ft 140 kts 276°
2026-05-05 23:25 35.07136 -90.25972 7984 ft 140 kts 276°
2026-05-05 23:25 35.07365 -90.27130 7985 ft 140 kts 276°
2026-05-05 23:25 35.07596 -90.28287 7986 ft 141 kts 277°
2026-05-05 23:26 35.07827 -90.29448 7986 ft 141 kts 277°
2026-05-05 23:26 35.08055 -90.30594 7985 ft 141 kts 277°
2026-05-05 23:26 35.08286 -90.31755 7983 ft 141 kts 277°
2026-05-05 23:26 35.08518 -90.32917 7992 ft 141 kts 277°
2026-05-05 23:27 35.08752 -90.34087 7995 ft 143 kts 277°
2026-05-05 23:27 35.08986 -90.35266 7982 ft 143 kts 277°
2026-05-05 23:27 35.09221 -90.36437 7977 ft 142 kts 277°
2026-05-05 23:27 35.09455 -90.37602 7978 ft 141 kts 277°
2026-05-05 23:28 35.09689 -90.38760 7985 ft 140 kts 277°
2026-05-05 23:28 35.09922 -90.39911 7984 ft 140 kts 277°
2026-05-05 23:28 35.10154 -90.41059 7983 ft 139 kts 277°
2026-05-05 23:28 35.10388 -90.42206 7981 ft 139 kts 277°
2026-05-05 23:29 35.10545 -90.42979 7979 ft 139 kts 277°
2026-05-05 23:29 35.10777 -90.44120 7982 ft 138 kts 277°
2026-05-05 23:29 35.11010 -90.45262 7983 ft 139 kts 277°
2026-05-05 23:29 35.11243 -90.46404 7983 ft 139 kts 277°
2026-05-05 23:30 35.11477 -90.47547 7982 ft 139 kts 277°
2026-05-05 23:30 35.11711 -90.48693 7982 ft 139 kts 277°
2026-05-05 23:30 35.11945 -90.49837 7981 ft 139 kts 277°
2026-05-05 23:30 35.12179 -90.50984 7981 ft 139 kts 277°
2026-05-05 23:31 35.12415 -90.52133 7981 ft 140 kts 277°
2026-05-05 23:31 35.12650 -90.53283 7975 ft 140 kts 277°
2026-05-05 23:31 35.12887 -90.54438 7974 ft 140 kts 277°
2026-05-05 23:31 35.13125 -90.55596 7971 ft 140 kts 277°
2026-05-05 23:32 35.13363 -90.56753 7969 ft 140 kts 277°
2026-05-05 23:32 35.13600 -90.57907 7969 ft 140 kts 277°
2026-05-05 23:32 35.13838 -90.59059 7969 ft 140 kts 277°
2026-05-05 23:32 35.14076 -90.60209 7971 ft 140 kts 277°
2026-05-05 23:33 35.14315 -90.61359 7966 ft 140 kts 277°
2026-05-05 23:33 35.14553 -90.62509 7966 ft 139 kts 277°
2026-05-05 23:33 35.14792 -90.63655 7966 ft 139 kts 277°
2026-05-05 23:33 35.15031 -90.64801 7966 ft 139 kts 277°
2026-05-05 23:34 35.15269 -90.65946 7967 ft 139 kts 277°
2026-05-05 23:34 35.15508 -90.67092 7968 ft 139 kts 277°
2026-05-05 23:34 35.15745 -90.68223 7973 ft 139 kts 277°
2026-05-05 23:34 35.15984 -90.69369 7975 ft 139 kts 277°
2026-05-05 23:35 35.16224 -90.70517 7974 ft 140 kts 278°
2026-05-05 23:35 35.16465 -90.71667 7976 ft 140 kts 278°
2026-05-05 23:35 35.16706 -90.72818 7971 ft 140 kts 278°
2026-05-05 23:35 35.16948 -90.73968 7975 ft 140 kts 278°
2026-05-05 23:36 35.17190 -90.75121 7973 ft 140 kts 278°
2026-05-05 23:36 35.17433 -90.76276 7972 ft 140 kts 278°
2026-05-05 23:36 35.17676 -90.77433 7975 ft 141 kts 278°
2026-05-05 23:36 35.17921 -90.78593 7974 ft 141 kts 279°
2026-05-05 23:37 35.18166 -90.79752 7968 ft 141 kts 278°
2026-05-05 23:37 35.18411 -90.80908 7966 ft 140 kts 278°
2026-05-05 23:37 35.18655 -90.82061 7966 ft 140 kts 278°
2026-05-05 23:37 35.18899 -90.83211 7967 ft 140 kts 278°
2026-05-05 23:38 35.19143 -90.84358 7972 ft 140 kts 278°
2026-05-05 23:38 35.19387 -90.85505 7972 ft 139 kts 278°
2026-05-05 23:38 35.19632 -90.86651 7973 ft 139 kts 278°
2026-05-05 23:38 35.19879 -90.87798 7973 ft 139 kts 278°
2026-05-05 23:39 35.20126 -90.88944 7972 ft 139 kts 278°
2026-05-05 23:39 35.20372 -90.90090 7971 ft 139 kts 278°
2026-05-05 23:39 35.20619 -90.91233 7972 ft 139 kts 279°
2026-05-05 23:39 35.20866 -90.92379 7967 ft 139 kts 278°
2026-05-05 23:40 35.21112 -90.93520 7968 ft 139 kts 278°
2026-05-05 23:40 35.21170 -90.94663 7970 ft 134 kts 256°
2026-05-05 23:40 35.20849 -90.95737 7974 ft 135 kts 248°
2026-05-05 23:40 35.20440 -90.96775 7973 ft 136 kts 246°
2026-05-05 23:41 35.20012 -90.97805 7969 ft 136 kts 245°
2026-05-05 23:41 35.19588 -90.98840 7969 ft 136 kts 246°
2026-05-05 23:41 35.19172 -90.99880 7965 ft 136 kts 246°
2026-05-05 23:41 35.18768 -91.00923 7966 ft 136 kts 247°
2026-05-05 23:42 35.18372 -91.01964 7990 ft 134 kts 247°
2026-05-05 23:42 35.17982 -91.03001 7999 ft 134 kts 247°
2026-05-05 23:42 35.17595 -91.04038 8004 ft 134 kts 247°
2026-05-05 23:42 35.17318 -91.05120 8010 ft 134 kts 258°
2026-05-05 23:43 35.17110 -91.06229 8009 ft 134 kts 256°
2026-05-05 23:43 35.16872 -91.07327 8009 ft 134 kts 255°
2026-05-05 23:43 35.16625 -91.08423 8010 ft 134 kts 255°
2026-05-05 23:43 35.16378 -91.09517 8009 ft 134 kts 255°
2026-05-05 23:44 35.16133 -91.10614 8009 ft 134 kts 255°
2026-05-05 23:44 35.15890 -91.11712 8011 ft 134 kts 255°
2026-05-05 23:44 35.15649 -91.12812 8009 ft 134 kts 255°
2026-05-05 23:44 35.15408 -91.13913 8004 ft 134 kts 255°
2026-05-05 23:45 35.15169 -91.15010 8012 ft 133 kts 255°
2026-05-05 23:45 35.14931 -91.16101 8008 ft 133 kts 255°
2026-05-05 23:45 35.14694 -91.17191 8011 ft 133 kts 255°
2026-05-05 23:45 35.14457 -91.18283 8006 ft 133 kts 255°
2026-05-05 23:46 35.14220 -91.19371 8013 ft 133 kts 255°
2026-05-05 23:46 35.13983 -91.20460 8012 ft 133 kts 255°
2026-05-05 23:46 35.13747 -91.21548 8013 ft 132 kts 255°
2026-05-05 23:46 35.13510 -91.22635 8006 ft 132 kts 255°
2026-05-05 23:47 35.13273 -91.23721 8005 ft 132 kts 255°
2026-05-05 23:47 35.13037 -91.24807 8007 ft 132 kts 255°
2026-05-05 23:47 35.12803 -91.25878 8003 ft 132 kts 255°
2026-05-05 23:47 35.12566 -91.26964 8006 ft 132 kts 255°
2026-05-05 23:48 35.12329 -91.28048 7999 ft 132 kts 255°
2026-05-05 23:48 35.12093 -91.29128 8005 ft 132 kts 255°
2026-05-05 23:48 35.11858 -91.30208 8007 ft 132 kts 255°
2026-05-05 23:48 35.11621 -91.31290 8006 ft 132 kts 255°
2026-05-05 23:49 35.11384 -91.32374 8011 ft 132 kts 255°
2026-05-05 23:49 35.11147 -91.33461 8007 ft 133 kts 255°
2026-05-05 23:49 35.10908 -91.34551 8009 ft 133 kts 255°
2026-05-05 23:49 35.10670 -91.35637 8003 ft 132 kts 255°
2026-05-05 23:50 35.10434 -91.36719 8003 ft 132 kts 255°
2026-05-05 23:50 35.10197 -91.37798 7998 ft 131 kts 255°
2026-05-05 23:50 35.09960 -91.38875 8004 ft 131 kts 255°
2026-05-05 23:50 35.09724 -91.39953 7997 ft 131 kts 255°
2026-05-05 23:51 35.09487 -91.41029 8006 ft 131 kts 255°
2026-05-05 23:51 35.09251 -91.42106 8006 ft 132 kts 255°
2026-05-05 23:51 35.09014 -91.43186 8004 ft 131 kts 255°
2026-05-05 23:51 35.08777 -91.44261 8003 ft 131 kts 255°
2026-05-05 23:52 35.08541 -91.45335 8005 ft 131 kts 255°
2026-05-05 23:52 35.08304 -91.46411 8012 ft 131 kts 255°
2026-05-05 23:52 35.08067 -91.47487 8007 ft 131 kts 255°
2026-05-05 23:52 35.07831 -91.48561 8008 ft 131 kts 255°
2026-05-05 23:53 35.07594 -91.49634 8005 ft 131 kts 255°
2026-05-05 23:53 35.07358 -91.50705 7999 ft 131 kts 255°
2026-05-05 23:53 35.07122 -91.51775 8003 ft 130 kts 255°
2026-05-05 23:53 35.06886 -91.52845 7995 ft 131 kts 253°
2026-05-05 23:54 35.06649 -91.53920 8004 ft 132 kts 254°
2026-05-05 23:54 35.06409 -91.55008 8003 ft 133 kts 254°
2026-05-05 23:54 35.06167 -91.56102 8001 ft 134 kts 254°
2026-05-05 23:54 35.05924 -91.57202 8003 ft 134 kts 254°
2026-05-05 23:55 35.05683 -91.58289 8007 ft 135 kts 254°
2026-05-05 23:55 35.05439 -91.59393 8007 ft 135 kts 254°
2026-05-05 23:55 35.05195 -91.60497 8004 ft 135 kts 254°
2026-05-05 23:55 35.04951 -91.61600 8004 ft 134 kts 254°
2026-05-05 23:56 35.04707 -91.62700 8002 ft 134 kts 254°
2026-05-05 23:56 35.04463 -91.63802 8000 ft 134 kts 254°
2026-05-05 23:56 35.04219 -91.64903 8003 ft 134 kts 254°
2026-05-05 23:56 35.03975 -91.66004 8006 ft 135 kts 254°
2026-05-05 23:57 35.03730 -91.67107 8006 ft 135 kts 254°
2026-05-05 23:57 35.03485 -91.68211 8005 ft 135 kts 254°
2026-05-05 23:57 35.03239 -91.69316 7992 ft 136 kts 254°
2026-05-05 23:57 35.02978 -91.70491 7700 ft 150 kts 254°
2026-05-05 23:58 35.02697 -91.71762 7412 ft 160 kts 253°
2026-05-05 23:58 35.02401 -91.73096 7123 ft 166 kts 253°
2026-05-05 23:58 35.02093 -91.74482 6836 ft 171 kts 253°
2026-05-05 23:58 35.01777 -91.75903 6552 ft 175 kts 253°
2026-05-05 23:59 35.01455 -91.77350 6270 ft 178 kts 253°
2026-05-05 23:59 35.01127 -91.78822 5980 ft 181 kts 253°
2026-05-05 23:59 35.00799 -91.80297 5774 ft 180 kts 252°
2026-05-05 23:59 35.00470 -91.81770 5579 ft 180 kts 252°
2026-05-06 00:00 35.00139 -91.83253 5378 ft 181 kts 252°
2026-05-06 00:00 34.99806 -91.84741 5182 ft 183 kts 252°
2026-05-06 00:00 34.99471 -91.86243 4988 ft 184 kts 252°
2026-05-06 00:00 34.99137 -91.87738 4792 ft 179 kts 251°
2026-05-06 00:01 34.98811 -91.89196 4602 ft 180 kts 251°
2026-05-06 00:01 34.98476 -91.90684 4409 ft 184 kts 251°
2026-05-06 00:01 34.98136 -91.92198 4220 ft 187 kts 251°
2026-05-06 00:01 34.97792 -91.93730 4048 ft 187 kts 251°
2026-05-06 00:02 34.97457 -91.95235 4017 ft 180 kts 251°
2026-05-06 00:02 34.97136 -91.96668 4012 ft 172 kts 250°
2026-05-06 00:02 34.96826 -91.98049 4004 ft 166 kts 250°
2026-05-06 00:02 34.96523 -91.99393 4003 ft 163 kts 250°
2026-05-06 00:03 34.96095 -92.00669 3781 ft 164 kts 231°
2026-05-06 00:03 34.95120 -92.01336 3492 ft 167 kts 194°
2026-05-06 00:03 34.93953 -92.01380 3212 ft 169 kts 185°
2026-05-06 00:03 34.92776 -92.01311 2932 ft 170 kts 183°
2026-05-06 00:04 34.91603 -92.01217 2703 ft 167 kts 181°
2026-05-06 00:04 34.90483 -92.01202 2595 ft 153 kts 195°
2026-05-06 00:04 34.89640 -92.01829 2547 ft 132 kts 218°
2026-05-06 00:04 34.88980 -92.02502 2509 ft 117 kts 220°
2026-05-06 00:05 34.87787 -92.03831 2506 ft 124 kts 221°
2026-05-06 00:05 34.87153 -92.04575 2517 ft 129 kts 223°
2026-05-06 00:05 34.86508 -92.05368 2369 ft 132 kts 225°
2026-05-06 00:06 34.85895 -92.06182 2288 ft 129 kts 226°
2026-05-06 00:06 34.85312 -92.06998 2239 ft 127 kts 227°
2026-05-06 00:06 34.84744 -92.07802 2213 ft 125 kts 226°
2026-05-06 00:06 34.84176 -92.08603 2203 ft 125 kts 225°
2026-05-06 00:07 34.83588 -92.09386 2199 ft 123 kts 223°
2026-05-06 00:07 34.83003 -92.10105 2192 ft 117 kts 222°
2026-05-06 00:07 34.82428 -92.10790 2199 ft 115 kts 222°
2026-05-06 00:07 34.81857 -92.11470 2200 ft 115 kts 222°
2026-05-06 00:08 34.81298 -92.12167 2203 ft 115 kts 222°
2026-05-06 00:08 34.80769 -92.12840 2204 ft 102 kts 223°
2026-05-06 00:08 34.80299 -92.13461 2110 ft 99 kts 224°
2026-05-06 00:08 34.79821 -92.14098 1965 ft 104 kts 224°
2026-05-06 00:09 34.79387 -92.14677 1872 ft 106 kts 224°
2026-05-06 00:09 34.78883 -92.15353 1731 ft 110 kts 223°
2026-05-06 00:09 34.78354 -92.16034 1569 ft 111 kts 222°
2026-05-06 00:09 34.77808 -92.16698 1412 ft 111 kts 222°
2026-05-06 00:10 34.77270 -92.17377 1271 ft 112 kts 223°
2026-05-06 00:10 34.76725 -92.18060 1180 ft 114 kts 224°
2026-05-06 00:10 34.76177 -92.18777 1060 ft 114 kts 223°
2026-05-06 00:10 34.75635 -92.19460 943 ft 110 kts 225°
2026-05-06 00:11 34.75117 -92.20140 737 ft 110 kts 225°
2026-05-06 00:11 34.74590 -92.20804 546 ft 109 kts 226°
2026-05-06 00:11 34.74067 -92.21481 391 ft 110 kts 226°
2026-05-06 00:11 34.73550 -92.22146 264 ft 100 kts 226°
2026-05-06 00:12 34.73136 -92.22675 260 ft 73 kts 226°
2026-05-06 00:12 34.72819 -92.23078 258 ft 58 kts 226°
2026-05-06 00:12 34.72584 -92.23378 260 ft 41 kts 226°
2026-05-06 00:12 34.72398 -92.23617 258 ft 32 kts 226°
2026-05-06 00:13 34.72285 -92.23773 257 ft 21 kts 247°
2026-05-06 00:13 34.72287 -92.23964 260 ft 14 kts 298°
2026-05-06 00:13 34.72293 -92.23972 260 ft 0 kts 314°